Regional Weather Roundup
Issued by NWS

Home | Current Version | Previous Version | Graphics & Text | Print | Product List | Glossary On
Versions: 1 2 3 4 5 6 7 8 9 10 11 12 13 14 15 16 17 18 19 20 21 22 23 24 25 26 27 28 29 30 31 32 33 34 35 36 37 38 39 40 41 42 43 44 45 46 47 48 49 50
000
ASUS45 KBOU 011907
RWRCO

WEATHER ROUNDUP FOR COLORADO
NATIONAL WEATHER SERVICE DENVER/BOULDER CO
1200 PM MST SUN MAR 01 2015

NOTE: "FAIR" INDICATES FEW OR NO CLOUDS BELOW 12000 FEET WITH NO
SIGNIFICANT WEATHER AND/OR OBSTRUCTIONS TO VISIBILITY.

COZ001>005-013-030-031-012000-
...NORTHWEST COLORADO...

CITY           SKY/WX    TMP DP  RH WIND       PRES   REMARKS
CRAIG          PTSUNNY   27  19  72 CALM      30.14S
HAYDEN         PTSUNNY   25  18  74 CALM      30.12F
MEEKER         CLOUDY    29  24  82 CALM      30.10F
MOUNT WERNER   NOT AVBL
STEAMBOAT SPGS CLOUDY    27  19  71 CALM      30.11R
WALDEN         PTSUNNY   21  14  73 CALM      30.07S
$$

COZ006>008-011-012000-
...WEST CENTRAL VALLEYS...

CITY           SKY/WX    TMP DP  RH WIND       PRES   REMARKS
GRAND JUNCTION CLOUDY    43  31  62 CALM      30.09S
MONTROSE       CLOUDY    39  31  72 NE5       30.11S
EAGLE          MOSUNNY   41  25  52 SW12      30.09F
RIFLE          CLOUDY    41  27  57 CALM      30.09F
DELTA          CLOUDY    45  35  69 CALM      30.10S
NUCLA          CLOUDY    37  32  81 W3        30.14S
$$

COZ017>023-064>068-012000-
...SOUTHWEST COLORADO...

CITY           SKY/WX    TMP DP  RH WIND       PRES   REMARKS
DURANGO        CLOUDY    36  32  85 E7        30.11F
CORTEZ         MIX PCPN  35  34  96 SW6       30.09S WCI  30
PAGOSA SPRINGS CLOUDY    37  31  79 CALM      30.14S HAZE
TELLURIDE      CLOUDY    32  24  74 CALM      30.10F
WOLF CREEK PAS SNOW      19  19 100 S13G22    30.16S VSB 1/4 WCI   7
$$

COZ009-010-012-014-032>034-037-058>063-012000-
...CENTRAL COLORADO...

CITY           SKY/WX    TMP DP  RH WIND       PRES   REMARKS
ASPEN          CLOUDY    33  24  69 N5        30.07R WCI  29
BUENA VISTA    CLOUDY    35  21  56 W3        30.09F
COPPER MTN     LGT SNOW  23  12  63 SW9G24    30.07R WCI  13
BERTHOUD PASS  CLOUDY    14   7  73 W15G35    30.06R HAZE    WCI  -1
COTTONWOOD PAS CLOUDY    32  21  64 CALM      30.10S HAZE
GUNNISON       PTSUNNY   28  21  74 CALM      30.16S
KREMMLING      CLOUDY    34  23  64 CALM      30.09S
LEADVILLE      CLOUDY    27  11  51 W5        30.06F WCI  22
SALIDA         PTSUNNY   42  22  46 SW9       30.17F
SUNLIGHT       CLOUDY    27  23  86 CALM        N/A
WILKERSON PASS CLOUDY    27  19  74 SW7       30.12R WCI  19
$$

COZ069>075-012000-
...SAN LUIS VALLEY/SANGRE DE CRISTO MOUNTAINS...

CITY           SKY/WX    TMP DP  RH WIND       PRES   REMARKS
ALAMOSA        CLOUDY    33  25  72 VRB5      30.12F WCI  29
LA VETA PASS   CLOUDY    30  27  86 S15G23    30.12S FOG     WCI  19
SAGUACHE       PTSUNNY   34  25  69 S5        30.14F WCI  30
$$

COZ035-036-038>040-012000-
...NORTHERN COLORADO FRONT RANGE...

CITY           SKY/WX    TMP DP  RH WIND       PRES   REMARKS
DENVER INTL AP PTSUNNY   23  16  74 N3        30.22R FOG
DMNS CITY PARK   N/A     28  15  58 NE5       30.24R WCI  23
AURORA         PTSUNNY   25  15  65 NE5       30.22R WCI  19
FRONT RANGE AP PTSUNNY   25  18  74 NE5       30.23  WCI  19
ERIE MUNI ARPT PTSUNNY   26  17  69 NE6       30.24S WCI  19
BOULDER MUN AP CLOUDY    27  19  74 NE5       30.23R WCI  21
CENTENNIAL     PTSUNNY   24  14  65 NE3       30.19S
BROOMFIELD     CLOUDY    27  18  69 N5        30.22R WCI  21
FORT COLLINS   CLOUDY    27  16  63 NE5       30.26S WCI  21
LONGMONT       CLOUDY    33  18  55 NW3       30.26S
$$

COZ041-046-047-076>085-087-088-012000-
...PIKES PEAK/PALMER DIVIDE AND SOUTHERN FOOTHILLS...

CITY           SKY/WX    TMP DP  RH WIND       PRES   REMARKS
COLO. SPRINGS  MOSUNNY   24  15  68 S8        30.19R FOG     WCI  15
A. F. ACADEMY  SUNNY     26  15  63 VRB2      30.15R
ELLICOTT       NOT AVBL
FALCON         SUNNY     28  14  55 CALM      30.16R
FORT CARSON    MOSUNNY   24  15  69 S7        30.18R WCI  15
LIMON          PTSUNNY   23  16  74 N9        30.22R WCI  13
MONUMENT HILL  PTSUNNY   23  14  68 NW5       30.15R HAZE    WCI  17
TRINIDAD       CLOUDY    23  17  78 N6        30.18S WCI  16
$$

COZ042>045-048>051-090-091-012000-
...NORTHEAST COLORADO...

CITY           SKY/WX    TMP DP  RH WIND       PRES   REMARKS
GREELEY ARPT   CLOUDY    27  12  54 N6        30.25S WCI  20
AKRON          SUNNY     28  16  60 N9G17     30.23F WCI  19
BURLINGTON     MOSUNNY   29  18  63 N10       30.26R WCI  20
WRAY           SUNNY     35  14  43 NE7G16    30.29S WCI  29
STERLING       PTSUNNY   32  18  55 NW8       30.27S WCI  25
HOLYOKE        NOT AVBL
FORT MORGAN    PTSUNNY   32  15  50 N9        30.26S WCI  24
$$

COZ086-089-092>099-012000-
...SOUTHEAST COLORADO...

CITY           SKY/WX    TMP DP  RH WIND       PRES   REMARKS
PUEBLO         SUNNY     25  16  68 SE5       30.24S WCI  19
LA JUNTA       PTSUNNY   29  18  63 N12       30.26S WCI  19
LAMAR          PTSUNNY   30  18  60 N8        30.27S WCI  22
SPRINGFIELD      N/A     27  19  72 N8        30.23S WCI  19
$$


USA.gov is the U.S. government's official web portal to all federal, state and local government web resources and services.